Tracking 30308 objects as of 19-Apr-2025
HD Live streaming from Space Station
objects crossing your sky now

STARLINK-4126

Track STARLINK-4126 now!
10-day predictions
STARLINK-4126 is classified as:


NORAD ID: 52867
Int'l Code: 2022-062AP
Perigee: 546.0 km
Apogee: 547.8 km
Inclination: 53.2 °
Period: 95.4 minutes
Semi major axis: 6917 km
RCS: Unknown
Launch date: June 17, 2022
Source: United States (US)
Launch site: AIR FORCE EASTERN TEST RANGE (AFETR)
Your satellite tracking list
Your tracking list is empty




NASA's NSSDC Master Catalog

Two Line Element Set (TLE):
1 52867U 22062AP  25108.14427811 -.00001150  00000-0 -54213-4 0  9992
2 52867  53.2175  45.5506 0001251  90.1234 269.9902 15.08832085157275
Source of the keplerian elements: AFSPC